カタログに戻る

COSMOS 1996

運用中軍事PO
NORAD 19787·PAYLOAD·🇷🇺 Russia

打ち上げ Feb 10, 1989 から Plesetsk Cosmodrome

Loading…

次のパス (今後24時間)

TLE

最新Source: Space-Track

元期: Sep 14, 2026, 21:51 UTC

1 19787U 89009C   26257.91094407  .00000026  00000-0  87676-4 0  9990
2 19787  82.6140 309.1633 0006114 196.0313 336.0124 12.62927470732758

AllMySatでCOSMOS 1996をリアルタイム追跡

Download on the App Store